Terug naar catalogus

STARLINK-32825

ActiefCommunicatieVLEO
NORAD 62825·PAYLOAD·🇺🇸 United States

Gelanceerd Jan 24, 2025 vanaf Vandenberg Space Force Base

Loading…

Volgende Passages (komende 24 uur)

TLE

VersSource: CelesTrak SupGP

Epoch: Sep 15, 2026, 03:35 UTC

1 62825C 25018V   26258.14979167  .00039206  00000+0  11585-2 0  2585
2 62825  53.1578 146.4805 0001335  81.2221 117.6240 15.34365605    10

Volg STARLINK-32825 in realtime met AllMySat

Download on the App Store